timestamp,surface_pressure_avg,surface_temp_avg,battery_voltage,lat,long
2018-06-29 00:00:00+00:00,346.9312,4.9,13.29,47.84626,-54.09684
2018-06-29 00:10:00+00:00,346.6379,4.9,13.21,47.84626,-54.09684
2018-06-29 00:20:00+00:00,344.0329,4.9,13.21,47.84626,-54.09684
2018-06-29 00:30:00+00:00,340.863,4.9,13.21,47.84626,-54.09684
2018-06-29 00:40:00+00:00,340.003,4.9,13.21,47.84626,-54.09684
2018-06-29 00:50:00+00:00,337.9996,4.9,13.21,47.84626,-54.09684
2018-06-29 01:00:00+00:00,333.7963,4.97,13.13,47.84626,-54.09684
2018-06-29 01:10:00+00:00,329.2913,5.07,13.05,47.84626,-54.09684
2018-06-29 01:20:00+00:00,327.6313,5.27,13.05,47.84626,-54.09684
2018-06-29 01:30:00+00:00,323.8613,5.3,13.05,47.84626,-54.09684
2018-06-29 01:40:00+00:00,318.5647,5.39,13.13,47.84626,-54.09684
2018-06-29 01:50:00+00:00,314.383,5.4,13.13,47.84626,-54.09684
2018-06-29 02:00:00+00:00,309.118,5.4,13.05,47.84626,-54.09684
2018-06-29 02:10:00+00:00,306.2112,5.4,12.97,47.84626,-54.09684
2018-06-29 02:20:00+00:00,303.748,5.47,13.05,47.84626,-54.09684
2018-06-29 02:30:00+00:00,296.4047,5.5,13.05,47.84626,-54.09684
2018-06-29 02:40:00+00:00,285.4447,5.5,13.05,47.84626,-54.09684
2018-06-29 02:50:00+00:00,279.8047,5.54,13.05,47.84626,-54.09684
2018-06-29 03:00:00+00:00,278.1263,5.53,13.05,47.84626,-54.09684
2018-06-29 03:10:00+00:00,268.5197,5.58,12.97,47.84626,-54.09684
2018-06-29 03:20:00+00:00,258.6064,5.58,13.05,47.84626,-54.09684
2018-06-29 03:30:00+00:00,254.8031,5.59,13.05,47.84626,-54.09684
2018-06-29 03:40:00+00:00,250.148,5.6,13.05,47.84626,-54.09684
2018-06-29 03:50:00+00:00,239.2364,5.59,13.05,47.84626,-54.09684
2018-06-29 04:00:00+00:00,231.0848,5.6,12.97,47.84626,-54.09684
2018-06-29 04:10:00+00:00,226.5331,5.6,12.97,47.84626,-54.09684
2018-06-29 04:20:00+00:00,219.9714,5.64,12.97,47.84626,-54.09684
2018-06-29 04:30:00+00:00,210.0965,5.67,12.97,47.84626,-54.09684
2018-06-29 04:40:00+00:00,203.4814,5.7,13.05,47.84626,-54.09684
2018-06-29 04:50:00+00:00,200.0714,5.7,13.05,47.84626,-54.09684
2018-06-29 05:00:00+00:00,194.2998,5.7,12.97,47.84626,-54.09684
2018-06-29 05:10:00+00:00,187.8365,5.7,12.89,47.84626,-54.09684
2018-06-29 05:20:00+00:00,183.3981,5.7,12.97,47.84626,-54.09684
2018-06-29 05:30:00+00:00,180.1182,5.68,12.97,47.84626,-54.09684
2018-06-29 05:40:00+00:00,178.7464,5.63,12.97,47.84626,-54.09684
2018-06-29 05:50:00+00:00,176.2015,5.61,12.97,47.84626,-54.09684
2018-06-29 06:00:00+00:00,174.2015,5.64,12.97,47.84626,-54.09684
2018-06-29 06:10:00+00:00,176.3815,5.69,12.89,47.84626,-54.09684
2018-06-29 06:20:00+00:00,179.2981,5.7,12.97,47.84626,-54.09684
2018-06-29 06:30:00+00:00,179.8448,5.72,12.97,47.84626,-54.09684
2018-06-29 06:40:00+00:00,178.8531,5.79,12.97,47.84626,-54.09684
2018-06-29 06:50:00+00:00,180.3164,5.82,12.97,47.84626,-54.09684
2018-06-29 07:00:00+00:00,186.9781,5.9,12.97,47.84626,-54.09684
2018-06-29 07:10:00+00:00,190.5314,5.9,12.89,47.84626,-54.09684
2018-06-29 07:20:00+00:00,190.6048,5.98,12.97,47.84626,-54.09684
2018-06-29 07:30:00+00:00,195.7831,6.0,12.97,47.84626,-54.09684
2018-06-29 07:40:00+00:00,201.7464,6.0,12.97,47.84626,-54.09684
2018-06-29 07:50:00+00:00,203.2281,6.11,12.97,47.84626,-54.09684
2018-06-29 08:00:00+00:00,205.2398,6.2,12.89,47.84626,-54.09684
2018-06-29 08:10:00+00:00,211.1647,6.24,12.81,47.84626,-54.09684
2018-06-29 08:20:00+00:00,216.0965,6.27,12.89,47.84626,-54.09684
2018-06-29 08:30:00+00:00,217.6448,6.3,12.89,47.84626,-54.09684
2018-06-29 08:40:00+00:00,223.0881,6.3,12.97,47.84626,-54.09684
2018-06-29 08:50:00+00:00,228.7314,6.34,12.97,47.84626,-54.09684
2018-06-29 09:00:00+00:00,231.1164,6.31,12.89,47.84626,-54.09684
2018-06-29 09:10:00+00:00,234.6348,6.3,12.81,47.84626,-54.09684
2018-06-29 09:20:00+00:00,241.8514,6.3,12.97,47.84626,-54.09684
2018-06-29 09:30:00+00:00,248.1264,6.3,12.97,47.84626,-54.09684
2018-06-29 09:40:00+00:00,250.5864,6.2,12.97,47.84626,-54.09684
2018-06-29 09:50:00+00:00,253.3864,6.2,12.97,47.84626,-54.09684
2018-06-29 10:00:00+00:00,259.7764,6.1,12.89,47.84626,-54.09684
2018-06-29 10:10:00+00:00,264.2964,6.0,12.89,47.84626,-54.09684
2018-06-29 10:20:00+00:00,268.6164,6.0,13.21,47.84626,-54.09684
2018-06-29 10:30:00+00:00,276.8431,5.99,13.68,47.84626,-54.09684
2018-06-29 10:40:00+00:00,283.7498,6.0,14.16,47.84626,-54.09684
2018-06-29 10:50:00+00:00,288.188,5.97,14.48,47.84626,-54.09684
2018-06-29 11:00:00+00:00,295.9147,5.9,14.56,47.84626,-54.09684
2018-06-29 11:10:00+00:00,304.813,5.8,14.56,47.84626,-54.09684
2018-06-29 11:20:00+00:00,310.768,5.81,14.64,47.84626,-54.09684
2018-06-29 11:30:00+00:00,316.2463,5.8,14.48,47.84626,-54.09684
2018-06-29 11:40:00+00:00,323.1213,5.7,15.83,47.84626,-54.09684
2018-06-29 11:50:00+00:00,323.6914,5.8,15.91,47.84626,-54.09684
2018-06-29 12:00:00+00:00,322.7729,5.8,14.72,47.84626,-54.09684
2018-06-29 12:10:00+00:00,326.5847,5.6,14.48,47.84626,-54.09684
2018-06-29 12:20:00+00:00,327.6147,5.6,14.56,47.84626,-54.09684
2018-06-29 12:30:00+00:00,325.0997,5.7,14.4,47.84626,-54.09684
2018-06-29 12:40:00+00:00,325.273,5.79,14.64,47.84626,-54.09684
2018-06-29 12:50:00+00:00,325.8613,5.82,15.27,47.84626,-54.09684
2018-06-29 13:00:00+00:00,324.3547,5.89,14.56,47.84626,-54.09684
2018-06-29 13:10:00+00:00,319.5063,5.9,14.4,47.84626,-54.09684
2018-06-29 13:20:00+00:00,319.2047,5.96,14.64,47.84626,-54.09684
2018-06-29 13:30:00+00:00,319.6763,5.98,14.56,47.84626,-54.09684
2018-06-29 13:40:00+00:00,314.3113,5.92,14.56,47.84626,-54.09684
2018-06-29 13:50:00+00:00,308.5864,5.9,15.6,47.84626,-54.09684
2018-06-29 14:00:00+00:00,307.5197,5.9,14.72,47.84626,-54.09684
2018-06-29 14:10:00+00:00,305.948,5.7,14.48,47.84626,-54.09684
2018-06-29 14:20:00+00:00,298.8414,5.67,14.48,47.84626,-54.09684
2018-06-29 14:30:00+00:00,294.3047,5.67,14.56,47.84626,-54.09684
2018-06-29 14:40:00+00:00,293.858,5.63,14.56,47.84626,-54.09684
2018-06-29 14:50:00+00:00,288.9347,5.6,14.64,47.84626,-54.09684
2018-06-29 15:00:00+00:00,280.9314,5.64,14.56,47.84626,-54.09684
2018-06-29 15:10:00+00:00,271.1164,5.75,14.64,47.84626,-54.09684
2018-06-29 15:20:00+00:00,263.6164,5.79,14.72,47.84626,-54.09684
2018-06-29 15:30:00+00:00,256.3464,5.7,14.64,47.84626,-54.09684
2018-06-29 15:40:00+00:00,248.3664,5.7,14.48,47.84626,-54.09684
2018-06-29 15:50:00+00:00,239.3047,5.7,14.56,47.84626,-54.09684
2018-06-29 16:00:00+00:00,232.6031,5.7,14.4,47.84626,-54.09684
2018-06-29 16:10:00+00:00,226.5197,5.71,14.32,47.84626,-54.09684
2018-06-29 16:20:00+00:00,218.5614,5.8,14.4,47.84626,-54.09684
2018-06-29 16:30:00+00:00,210.2314,5.8,14.32,47.84626,-54.09684
2018-06-29 16:40:00+00:00,204.9848,5.8,14.32,47.84626,-54.09684
2018-06-29 16:50:00+00:00,202.1731,5.8,14.32,47.84626,-54.09684
2018-06-29 17:00:00+00:00,196.4915,5.79,14.24,47.84626,-54.09684
2018-06-29 17:10:00+00:00,189.1531,5.8,14.24,47.84626,-54.09684
2018-06-29 17:20:00+00:00,184.7648,5.87,14.48,47.84626,-54.09684
2018-06-29 17:30:00+00:00,182.2148,5.98,14.4,47.84626,-54.09684
2018-06-29 17:40:00+00:00,178.9065,6.1,14.32,47.84626,-54.09684
2018-06-29 17:50:00+00:00,175.7515,6.19,14.32,47.84626,-54.09684
2018-06-29 18:00:00+00:00,175.6365,6.28,14.32,47.84626,-54.09684
2018-06-29 18:10:00+00:00,178.7215,6.42,14.24,47.84626,-54.09684
2018-06-29 18:20:00+00:00,180.5514,6.47,14.32,47.84626,-54.09684
2018-06-29 18:30:00+00:00,180.9715,6.4,14.32,47.84626,-54.09684
2018-06-29 18:40:00+00:00,183.5381,6.3,14.32,47.84626,-54.09684
2018-06-29 18:50:00+00:00,187.9315,6.3,14.24,47.84626,-54.09684
2018-06-29 19:00:00+00:00,189.6265,6.31,14.08,47.84626,-54.09684
2018-06-29 19:10:00+00:00,189.0481,6.39,14.0,47.84626,-54.09684
2018-06-29 19:20:00+00:00,193.1665,6.4,14.08,47.84626,-54.09684
2018-06-29 19:30:00+00:00,200.1165,6.4,14.08,47.84626,-54.09684
2018-06-29 19:40:00+00:00,203.0481,6.4,14.16,47.84626,-54.09684
2018-06-29 19:50:00+00:00,206.1631,6.49,14.08,47.84626,-54.09684
2018-06-29 20:00:00+00:00,213.3581,6.5,14.0,47.84626,-54.09684
2018-06-29 20:10:00+00:00,219.6897,6.5,13.84,47.84626,-54.09684
2018-06-29 20:20:00+00:00,225.0865,6.5,13.84,47.84626,-54.09684
2018-06-29 20:30:00+00:00,229.2664,6.5,13.84,47.84626,-54.09684
2018-06-29 20:40:00+00:00,235.8881,6.5,13.84,47.84626,-54.09684
2018-06-29 20:50:00+00:00,242.4431,6.53,13.84,47.84626,-54.09684
2018-06-29 21:00:00+00:00,244.8748,6.59,13.68,47.84626,-54.09684
2018-06-29 21:10:00+00:00,248.3814,6.6,13.6,47.84626,-54.09684
2018-06-29 21:20:00+00:00,255.4964,6.66,13.6,47.84626,-54.09684
2018-06-29 21:30:00+00:00,262.5214,6.75,13.53,47.84626,-54.09684
2018-06-29 21:40:00+00:00,266.2431,6.87,13.44,47.84626,-54.09684
2018-06-29 21:50:00+00:00,274.0781,6.95,13.44,47.84626,-54.09684
2018-06-29 22:00:00+00:00,282.9548,7.0,13.37,47.84626,-54.09684
2018-06-29 22:10:00+00:00,289.3264,7.0,13.21,47.84626,-54.09684
2018-06-29 22:20:00+00:00,292.4113,7.05,13.29,47.84626,-54.09684
2018-06-29 22:30:00+00:00,301.7563,7.08,13.21,47.84626,-54.09684
2018-06-29 22:40:00+00:00,310.3264,7.09,13.21,47.84626,-54.09684
2018-06-29 22:50:00+00:00,314.4446,7.1,13.21,47.84626,-54.09684
2018-06-29 23:00:00+00:00,318.3414,7.1,13.13,47.84626,-54.09684
2018-06-29 23:10:00+00:00,328.2013,7.1,13.05,47.84626,-54.09684
2018-06-29 23:20:00+00:00,333.1646,7.1,13.13,47.84626,-54.09684
2018-06-29 23:30:00+00:00,335.3263,6.85,13.13,47.84626,-54.09684
2018-06-29 23:40:00+00:00,341.7979,6.6,13.13,47.84626,-54.09684
2018-06-29 23:50:00+00:00,347.3413,6.39,13.13,47.84626,-54.09684
